Delaware County Johnson Field
KMIE : now visible

Airfield :











YOU CAN JOIN US ON...

 
LOGIN :

Register | Disclaimer

   EN    FR    IT 

 









Legend :    VFR   Marginal VFR   IFR   Intensive IFR   Very Intensive IFR
Visi :
Ceiling :
>= 8 km
>= 3000ft
5 to 8 km
1000 to 3000 ft
1500m to 5 km
500 to 1000 ft
800 to 1500m
200 to 500 ft
< 800m
< 200 ft
Symbols :   Thunderstorms  Fog  Heavy snow  Heavy precipitations  Wind > 20 kt






- Airport Elevation : 937 ft
- IATA code : MIE


KMIE - Delaware County Johnson Field

CURRENT METAR :
  • 170853Z AUTO 26009KT 10SM OVC007 02/M01 A2973 RMK AO2 SNE0755 CIG 006V010 SLP072 P0000 60000 T00171011 51005

EXPIRED METARs :
  • 170753Z AUTO 27011G19KT 7SM -SN OVC005 02/M01 A2973 RMK AO2 SNB09 CIG 004V010 SLP073 P0000 T00171011
  • 170724Z AUTO 27008G17KT 5SM -SN BR OVC005 02/M01 A2972 RMK AO2 SNB09 P0000 T00171006
  • 170653Z AUTO 27010KT 5SM BR OVC004 02/M01 A2972 RMK AO2 SNB0555E36 SLP069 P0000 T00171006
  • 170624Z AUTO 27010KT 4SM -SN BR OVC004 02/M01 A2972 RMK AO2 SNB0555 P0000 T00171006

TAF N/A
KZID FIR / North America



MET'MAP, your aeronautical weather chart ! - Copyright ORBIFLY December 2007 - Disclaimer

ORBIFLY MET'MAP TEAM :

Programming & Development : Alexandra Zaïnal
Concept & original design : Baudouin d'Aumeries
Assistance for programming : Marc-Olivier Méhu
Technical & hardware support : Manuel Goepfert

Contact : metmap@orbifly.com




SOURCES & CREDITS :

   NOAA       Earth
Advisory